TimeEST,TemperatureF,Dew PointF,Humidity,Sea Level PressureIn,VisibilityMPH,Wind Direction,Wind SpeedMPH,Gust SpeedMPH,PrecipitationIn,Events,Conditions,WindDirDegrees,DateUTC
12:15 AM,55.4,55.4,100,30.03,10.0,Calm,Calm,-,N/A,,Mostly Cloudy,0,2013-01-17 05:15:00
12:35 AM,53.6,53.6,100,30.03,10.0,Calm,Calm,-,N/A,,Overcast,0,2013-01-17 05:35:00
12:55 AM,55.4,55.4,100,30.03,2.5,Calm,Calm,-,N/A,,Mostly Cloudy,0,2013-01-17 05:55:00
1:15 AM,53.6,53.6,100,30.03,10.0,Calm,Calm,-,N/A,,Mostly Cloudy,0,2013-01-17 06:15:00
1:35 AM,53.6,53.6,100,30.03,10.0,Calm,Calm,-,N/A,,Scattered Clouds,0,2013-01-17 06:35:00
1:55 AM,53.6,53.6,100,30.03,10.0,Calm,Calm,-,N/A,,Clear,0,2013-01-17 06:55:00
2:15 AM,53.6,53.6,100,30.03,10.0,Calm,Calm,-,N/A,,Clear,0,2013-01-17 07:15:00
2:35 AM,53.6,53.6,100,30.02,10.0,Calm,Calm,-,N/A,,Clear,0,2013-01-17 07:35:00
3:15 AM,55.4,55.4,100,30.02,7.0,Calm,Calm,-,N/A,,Clear,0,2013-01-17 08:15:00
3:35 AM,55.4,55.4,100,30.01,7.0,Calm,Calm,-,N/A,,Clear,0,2013-01-17 08:35:00
3:55 AM,57.2,57.2,100,30.01,7.0,Calm,Calm,-,N/A,,Clear,0,2013-01-17 08:55:00
4:35 AM,59.0,59.0,100,30.00,5.0,SSE,3.5,-,N/A,,Clear,150,2013-01-17 09:35:00
4:55 AM,60.8,60.8,100,29.99,7.0,SSE,3.5,-,N/A,,Scattered Clouds,150,2013-01-17 09:55:00
5:15 AM,60.8,60.8,100,29.99,7.0,SSE,3.5,-,N/A,,Clear,150,2013-01-17 10:15:00
5:35 AM,60.8,60.8,100,29.99,7.0,SSE,3.5,-,N/A,,Clear,150,2013-01-17 10:35:00
5:55 AM,60.8,60.8,100,29.99,7.0,SE,3.5,-,N/A,,Clear,140,2013-01-17 10:55:00
6:15 AM,60.8,60.8,100,29.99,7.0,Calm,Calm,-,N/A,,Clear,0,2013-01-17 11:15:00
6:35 AM,60.8,60.8,100,30.00,7.0,Calm,Calm,-,N/A,,Clear,0,2013-01-17 11:35:00
6:55 AM,60.8,60.8,100,30.00,7.0,Calm,Calm,-,N/A,,Clear,0,2013-01-17 11:55:00
7:15 AM,60.8,60.8,100,30.00,7.0,Calm,Calm,-,N/A,,Clear,0,2013-01-17 12:15:00
7:35 AM,60.8,60.8,100,30.01,5.0,Calm,Calm,-,N/A,,Mostly Cloudy,0,2013-01-17 12:35:00
7:55 AM,62.6,62.6,100,30.01,7.0,SSE,3.5,-,N/A,,Mostly Cloudy,150,2013-01-17 12:55:00
8:15 AM,62.6,62.6,100,30.01,5.0,SSE,3.5,-,N/A,,Overcast,150,2013-01-17 13:15:00
8:35 AM,64.4,64.4,100,30.02,10.0,South,3.5,-,N/A,,Overcast,170,2013-01-17 13:35:00
8:55 AM,64.4,64.4,100,30.02,10.0,South,4.6,-,N/A,,Overcast,180,2013-01-17 13:55:00
9:15 AM,66.2,64.4,94,30.03,10.0,South,4.6,-,N/A,,Overcast,180,2013-01-17 14:15:00
9:35 AM,66.2,64.4,94,30.05,4.0,West,19.6,31.1,N/A,,Heavy Drizzle,280,2013-01-17 14:35:00
9:55 AM,64.4,62.6,94,30.07,3.0,West,15.0,23.0,0.01,,Heavy Drizzle,270,2013-01-17 14:55:00
10:15 AM,62.6,62.6,100,30.07,5.0,West,11.5,23.0,N/A,,Light Drizzle,260,2013-01-17 15:15:00
10:35 AM,62.6,62.6,100,30.07,2.5,West,11.5,-,0.02,Rain,Rain,270,2013-01-17 15:35:00
10:55 AM,62.6,62.6,100,30.07,2.0,West,13.8,23.0,0.06,Rain,Heavy Rain,280,2013-01-17 15:55:00
11:15 AM,62.6,60.8,94,30.07,7.0,West,13.8,25.3,N/A,Rain,Light Rain,280,2013-01-17 16:15:00
11:35 AM,60.8,60.8,100,30.06,1.8,West,13.8,17.3,N/A,,Heavy Drizzle,270,2013-01-17 16:35:00
11:55 AM,60.8,60.8,100,30.07,1.5,West,13.8,24.2,0.02,,Heavy Drizzle,260,2013-01-17 16:55:00
12:15 PM,60.8,59.0,94,30.07,1.8,West,13.8,19.6,0.01,,Heavy Drizzle,280,2013-01-17 17:15:00
12:35 PM,59.0,59.0,100,30.07,1.8,West,13.8,23.0,0.02,,Heavy Drizzle,270,2013-01-17 17:35:00
12:55 PM,59.0,55.4,88,30.06,4.0,West,18.4,26.5,0.02,,Drizzle,270,2013-01-17 17:55:00
1:15 PM,57.2,55.4,94,30.06,7.0,West,12.7,23.0,N/A,Rain,Light Rain,270,2013-01-17 18:15:00
1:35 PM,55.4,53.6,94,30.06,2.0,West,17.3,28.8,N/A,,Drizzle,280,2013-01-17 18:35:00
1:55 PM,57.2,51.8,82,30.05,5.0,West,18.4,29.9,N/A,,Light Drizzle,270,2013-01-17 18:55:00
2:15 PM,59.0,51.8,77,30.04,10.0,West,16.1,25.3,N/A,,Overcast,270,2013-01-17 19:15:00
2:35 PM,59.0,50.0,72,30.05,10.0,West,15.0,24.2,N/A,,Overcast,270,2013-01-17 19:35:00
2:55 PM,59.0,50.0,72,30.05,10.0,West,18.4,29.9,N/A,,Overcast,270,2013-01-17 19:55:00
3:15 PM,59.0,48.2,67,30.05,10.0,West,16.1,28.8,N/A,,Overcast,270,2013-01-17 20:15:00
3:35 PM,59.0,46.4,63,30.06,10.0,West,18.4,28.8,N/A,,Overcast,260,2013-01-17 20:35:00
3:55 PM,59.0,46.4,63,30.06,10.0,West,15.0,25.3,N/A,,Overcast,280,2013-01-17 20:55:00
4:15 PM,59.0,46.4,63,30.06,10.0,West,17.3,26.5,N/A,,Overcast,260,2013-01-17 21:15:00
4:35 PM,59.0,44.6,59,30.06,10.0,West,16.1,26.5,N/A,,Mostly Cloudy,270,2013-01-17 21:35:00
4:55 PM,59.0,46.4,63,30.06,10.0,West,16.1,25.3,N/A,,Overcast,270,2013-01-17 21:55:00
5:55 PM,57.2,46.4,67,30.08,10.0,West,15.0,27.6,N/A,,Overcast,280,2013-01-17 22:55:00
6:35 PM,55.4,46.4,72,30.09,10.0,West,20.7,28.8,N/A,,Overcast,270,2013-01-17 23:35:00
8:55 PM,53.6,44.6,72,30.14,10.0,WNW,12.7,21.9,N/A,,Overcast,290,2013-01-18 01:55:00
9:15 PM,51.8,42.8,71,30.14,10.0,WNW,15.0,21.9,N/A,,Overcast,290,2013-01-18 02:15:00
9:55 PM,51.8,42.8,71,30.16,10.0,West,10.4,26.5,N/A,,Overcast,280,2013-01-18 02:55:00
10:15 PM,50.0,41.0,71,30.17,10.0,WNW,16.1,28.8,N/A,,Overcast,290,2013-01-18 03:15:00
10:35 PM,50.0,41.0,71,30.17,10.0,WNW,13.8,28.8,N/A,,Overcast,290,2013-01-18 03:35:00
10:55 PM,50.0,41.0,71,30.18,10.0,NNW,13.8,19.6,N/A,,Overcast,330,2013-01-18 03:55:00